Location: Eitzum
(52.0792°N, 9.8463°E)
Time: 17:36:44
(UTC+00:00)

Daily predictions for brighter satellites

Satellite Brightness Start Highest point End
(mag) Time Altitude Azimuth Time Altitude Azimuth Time Altitude Azimuth
ERS-1 Rocket 3.1 20:25:39 10° SSE 20:30:40 69° ENE 20:35:41 10° N
Cosmos 1140 Rocket 3.7 20:26:33 10° NNW 20:31:46 70° WSW 20:36:55 10° SSE
Cosmos 1953 4.0 20:30:42 10° NNW 20:34:12 31° W 20:37:41 10° SSW
NOSS 2-1 (E) 4.4 20:31:05 10° NW 20:35:09 53° NE 20:40:47 10° ESE
Cosmos 1943 3.4 20:32:56 10° SSW 20:38:38 82° WNW 20:44:20 10° NNE
CZ-2C R/B 4.2 20:35:50 10° NNE 20:40:17 43° E 20:44:38 10° S
Lacrosse 5 2.1 20:37:14 10° WNW 20:42:23 76° NNE 20:47:30 10° ESE
Cosmos 1603 3.9 20:36:53 10° SSW 20:42:36 85° WNW 20:48:23 10° NNE
H-2A R/B 3.9 20:42:06 10° N 20:46:03 35° WNW 20:50:04 10° SW
Cosmos 1975 Rocket 3.1 20:42:20 10° S 20:46:49 79° E 20:51:16 10° NNE
Helios 1A Rocket 3.1 20:44:33 10° S 20:48:36 74° WSW 20:52:43 10° NNW
Cosmos 1954 Rocket 4.1 20:43:35 10° NNW 20:48:55 76° ENE 20:54:10 10° SSE
Ariane Rocket 4.4 20:45:28 10° SSW 20:50:07 35° W 20:54:49 10° NNW
Resurs 01 Rocket 3.9 20:51:24 10° SW 20:54:46 21° W 20:58:10 10° NW
Lacrosse 4 Rocket 2.5 20:54:39 10° WSW 20:58:40 47° NW 21:02:37 10° NNE
Tiangong 3.1 20:58:15 10° SSW 20:59:33 12° S 21:00:12 11° SSE
Cosmos 2228 4.1 20:56:51 10° N 21:00:42 32° ENE 21:04:23 11° SE
Cosmos 1544 Rocket 3.5 20:58:54 10° N 21:03:16 89° E 21:07:35 10° S
Cosmos 1703 4.5 21:03:35 12° SE 21:06:33 27° E 21:09:49 10° NNE
FALCON 9 DEB 3.2 21:04:07 10° SW 21:07:15 47° SSE 21:10:26 10° E
Terra 2.0 21:03:09 10° S 21:07:54 74° WSW 21:12:42 10° NNW
USA 267 3.3 21:02:03 10° ENE 21:08:30 56° SE 21:14:54 10° SW
SL-8 R/B 3.8 21:04:21 10° WSW 21:09:02 54° S 21:13:45 10° E
Cosmos 1980 Rocket 4.0 21:05:29 10° NNW 21:10:10 25° NE 21:14:50 10° E
Cosmos 1455 2.2 21:07:16 10° NNW 21:11:04 81° W 21:14:42 11° S
Meteor 1-24 Rocket 3.6 21:08:10 10° SSW 21:13:28 87° WNW 21:18:55 10° NNE
Cosmos 2315 Rocket 4.3 21:08:21 10° SSW 21:14:42 75° W 21:21:03 10° N
Cosmos 1697 Rocket 3.7 21:09:48 10° NNW 21:15:05 39° NE 21:20:19 10° ESE
NOSS 2-1 (C) 3.9 21:12:25 10° NW 21:16:39 85° SW 21:22:11 12° SE
RESURS DK-1 3.5 21:15:20 10° NNW 21:19:10 36° NE 21:23:01 10° ESE
Cosmos 1371 Rocket 4.0 21:14:15 10° SSW 21:19:28 83° ESE 21:24:48 10° NNE
Cosmos 1452 Rocket 4.4 21:17:03 12° SSE 21:21:09 31° ESE 21:25:44 10° NE
Spot 2 Rocket 4.5 21:16:25 10° S 21:21:15 42° W 21:26:07 10° NNW
CZ-4B R/B 4.3 21:24:19 10° NW 21:25:28 12° WNW 21:26:37 10° W
NOSS 2-1 (D) 3.9 21:22:45 10° NW 21:27:02 74° SW 21:32:17 13° SE
ARIANE 5 R/B 3.0 21:23:37 11° S 21:27:54 61° WSW 21:32:21 10° NNW
ASTEX 1 4.2 21:23:38 10° NNE 21:28:18 37° E 21:32:06 14° SSE
Lacrosse 5 rocket 1.7 21:25:03 10° WNW 21:28:46 46° SW 21:31:47 16° SSE
Cosmos 2084 3.7 21:27:45 10° SSW 21:31:19 38° SE 21:34:57 10° ENE
Cosmos 2074 Rocket 4.1 21:30:01 10° N 21:36:21 86° W 21:42:02 13° S
ATLAS 2AS CENTAUR R/B 2.9 21:32:12 10° NW 21:39:16 62° SW 21:44:51 15° SSE
Cosmos 1624 Rocket 4.2 21:36:04 10° SSW 21:41:18 74° WNW 21:46:33 10° NNE
Cosmos 1656 3.6 21:36:56 10° NNW 21:42:25 86° WSW 21:46:54 16° SSE
GP-B 4.0 21:38:28 10° NNE 21:42:36 36° E 21:45:39 16° SE
USA 234 3.5 21:38:52 13° SE 21:44:44 58° SW 21:51:12 10° WNW
Cosmos 1833 Rocket 3.7 21:44:37 16° SSE 21:48:11 30° ESE 21:53:00 10° NE
Cosmos 2154 Rocket 4.0 21:49:24 10° N 21:55:42 86° W 22:00:52 16° S
Cosmos 1271 Rocket 4.4 21:54:17 10° NNW 21:57:43 28° W 22:01:09 10° SSW
Nadezhda 1 Rocket 4.0 21:54:38 14° S 21:59:56 74° E 22:06:01 10° NNE
Cosmos 2056 Rocket 4.3 21:55:49 10° SW 22:01:06 55° WNW 22:06:28 10° NNE
Cosmos 2082 Rocket 3.9 21:59:43 13° SE 22:02:30 18° E 22:06:10 10° ENE
Cosmos 1741 Rocket 4.1 21:57:44 10° NNW 22:03:04 79° WSW 22:07:02 18° SSE
Cosmos 2344 4.2 21:59:35 10° NW 22:08:08 86° NE 22:20:01 10° SE
Cosmos 1536 Rocket 4.5 22:14:02 10° SSW 22:18:11 45° WNW 22:22:22 10° N
Cosmos 1607 4.2 22:12:45 10° SW 22:19:00 74° NW 22:25:13 10° NE
Cosmos 968 Rocket 3.9 22:19:15 10° NNW 22:24:23 59° ENE 22:28:30 16° SE
Cosmos 1606 Rocket 3.8 22:20:17 10° NNW 22:24:34 62° W 22:27:26 20° S
H-2A R/B 4.0 22:20:54 10° NNE 22:24:55 43° E 22:27:16 22° SSE
Lacrosse 5 2.6 22:20:27 10° WNW 22:25:07 36° SW 22:27:55 21° S
COSMOS 2406 4.0 22:25:01 19° SSE 22:28:26 36° ESE 22:33:40 10° NE
Cosmos 724 4.3 22:26:30 10° SW 22:32:19 88° NW 22:38:10 10° NE
Meteor 1-11 4.4 22:30:33 20° S 22:34:27 60° E 22:39:58 10° NNE
SL-8 Rocket 4.1 22:28:37 10° N 22:34:56 78° E 22:39:30 19° SSE
Cosmos 2369 3.8 22:30:54 10° NNW 22:36:41 77° ENE 22:41:14 17° SE
TSX-5 4.4 22:33:04 12° SSW 22:37:10 90° NW 22:42:59 10° NE
SJ 16-02 3.9 22:35:03 10° N 22:37:54 16° NE 22:40:44 10° E
Cosmos 2228 4.3 22:34:26 10° NNW 22:38:11 31° W 22:41:10 14° SSW
Cosmos 2218 Rocket 4.2 22:32:06 10° N 22:38:31 72° ENE 22:43:17 19° SSE
Cosmos 1328 4.0 22:37:11 19° SSW 22:39:58 71° WNW 22:44:00 10° N
Cosmos 2341 Rocket 4.1 22:34:03 10° NNW 22:40:27 84° W 22:45:04 20° S
SL-16 R/B 3.8 22:36:49 10° NNW 22:41:51 31° NE 22:46:51 10° ESE
FALCON 9 DEB 3.1 22:40:12 10° W 22:43:29 76° N 22:46:46 10° E
Cosmos 1408 2.4 22:43:33 28° S 22:45:14 68° E 22:48:40 10° NNE
Terra 4.3 22:45:01 10° WSW 22:46:32 11° W 22:48:02 10° WNW
Cosmos 2366 rocket 4.1 22:41:51 10° N 22:48:11 81° E 22:52:47 20° SSE
Cosmos 1825 3.1 22:46:54 23° SE 22:48:39 36° E 22:52:07 10° NNE
ALOS 2 2.6 22:46:37 23° S 22:49:18 74° WSW 22:53:43 10° NNW
Cosmos 1900 4.4 22:44:51 10° NW 22:50:02 73° SW 22:53:34 20° SSE
Cosmos 1867 4.0 22:44:57 10° NW 22:50:26 65° NE 22:55:51 10° SE
Cosmos 1726 Rocket 4.3 22:46:50 10° NNW 22:50:56 44° W 22:53:36 20° SSW
SL-8 R/B 3.9 22:46:35 10° W 22:51:15 49° SSW 22:55:54 10° ESE
USA 267 3.5 22:45:10 10° ENE 22:51:43 74° NNW 22:58:14 10° WSW
Cosmos 1980 Rocket 2.2 22:49:13 10° NNW 22:54:58 89° ENE 22:59:13 19° SSE
RESURS DK-1 3.4 22:53:25 10° NW 22:57:09 33° WSW 22:59:03 22° SSW
Cosmos 1697 Rocket 3.1 22:53:48 10° NW 22:59:13 49° WSW 23:02:42 21° S
Cosmos 1812 Rocket 4.3 22:56:31 10° N 23:00:52 46° ENE 23:03:53 18° SE
Cosmos 1331 Rocket 4.1 22:57:22 15° SSW 23:01:48 78° WNW 23:07:09 10° NNE
Cosmos 1452 Rocket 4.3 22:57:57 10° SW 23:03:04 49° WNW 23:08:12 10° NNE
ERS-2 2.2 23:04:11 10° NNE 23:07:45 60° ESE 23:09:26 28° S
Cosmos 1892 2.6 23:06:34 25° SSW 23:08:37 78° WNW 23:12:23 10° N
Cosmos 2084 Rocket 3.1 23:06:29 10° NW 23:10:22 84° SW 23:13:11 19° SE
USA 276 2.2 23:10:14 39° S 23:10:31 40° SSE 23:13:17 10° E
ADEOS Rocket 3.6 23:05:35 20° S 23:10:42 67° WSW 23:18:17 10° NNW
In-Cosmos 22 Rocket 4.2 23:08:21 21° S 23:12:11 79° E 23:17:44 10° NNE
Cosmos 2058 Rocket 3.8 23:10:01 10° NNW 23:14:10 43° W 23:16:43 21° SSW
Cosmos 1602 Rocket 4.0 23:15:24 23° SSE 23:17:47 48° E 23:21:58 10° NNE
Aureole 1 Rocket 4.5 23:11:37 10° NNW 23:17:57 72° ENE 23:25:13 12° SSE
Cosmos 2181 Rocket 4.0 23:15:18 20° SSW 23:19:47 81° W 23:26:01 10° N
Cosmos 2278 3.7 23:17:13 10° NNW 23:22:59 89° NE 23:27:31 17° SSE
Cosmos 2322 Rocket 3.4 23:18:44 10° NNW 23:24:04 40° NE 23:29:25 10° ESE
Cosmos 1302 Rocket 3.9 23:21:10 20° SSW 23:24:48 86° ESE 23:30:02 10° NNE
Cosmos 192 4.3 23:21:56 20° SSW 23:25:22 85° WNW 23:30:19 10° NNE
ATLAS 2AS CENTAUR R/B 4.5 23:25:07 10° WNW 23:28:43 15° WSW 23:32:12 10° SW
Cosmos 1833 Rocket 3.2 23:26:16 10° SW 23:31:48 59° NW 23:37:23 10° NNE
CZ-2D R/B 4.3 23:31:53 10° NE 23:34:29 14° E 23:37:04 10° ESE
Geosat 4.0 23:35:57 16° SSE 23:39:57 87° WSW 23:45:01 10° NNW
BREEZE-M DEB (TANK) 4.2 23:37:02 10° W 23:40:49 64° S 23:56:43 10° ESE
Okean 1-7 Rocket 3.9 23:39:49 21° SSW 23:42:37 60° WNW 23:47:03 10° N
Cosmos 1626 Rocket 3.7 23:42:03 23° SSW 23:44:41 65° WNW 23:49:01 10° N
Cosmos 2082 Rocket 2.2 23:41:32 19° SSW 23:45:47 87° ESE 23:51:32 10° NNE
Cosmos 1821 Rocket 4.0 23:40:08 10° NNW 23:46:28 79° W 23:50:56 20° S
Cosmos 1869 4.2 23:45:32 10° NNW 23:49:02 34° W 23:50:55 22° SW
ATLAS 5 CENTAUR R/B 2.7 23:51:03 20° SSE 23:52:21 24° ESE 23:55:41 10° ENE
Cosmos 1238 4.3 23:52:31 31° SSE 23:53:47 63° E 23:56:48 10° NNE
Cosmos-2242 3.0 23:50:47 10° NNW 23:55:02 69° W 23:57:29 24° S
